Location: Les Jeannots
(43.2262°N, 5.5774°E)
Time: 08:05:38
(UTC+00:00)

IRIDIUM 114 - Pass Details

Date: 05 July 2020
Orbit: 776 x 779 km, 86.4° (Epoch: 04 August)

Event Time Altitude Azimuth Distance (km) Brightness Sun altitude
Exits shadow 23:32:30 56° 227° (SW) 926 4.4 -24.1°
Maximum altitude 23:33:22 66° 274° (W) 852 4.4 -24.1°
Drops below altitude 10° 23:38:35 10° 357° (N) 2,340 7.9 -24.1°
Sets 23:40:58 0° 1° (N) 3,272 9.0 -24.1°
